Temp
9 9 9 9 9 9 9 9 9 9 9 9 9 10 10 11 12 11 12 13 14 14 14 15 15 15 14 13 14 11 13 13 14 15 16 14 14 9 9 8 6 5 6 5 5
8 8 9 8 9 8 8 8 8 8 9 9 9 9 11 11 11 11 14 13 14 13 14 14 13 14 13 14 14 13 13 13 14 16 15 14 13 11 11 9 7 5 4 4 5
8 8 8 8 8 8 8 8 8 8 8 8 9 10 11 11 11 12 15 13 14 14 14 15 14 15 14 15 15 14 13 13 13 14 15 14 12 10 10 11 9 8 5 5 5
8 8 8 7 7 7 7 7 8 8 8 8 9 10 11 11 13 15 15 14 14 14 14 14 12 13 14 14 15 14 14 15 14 13 14 13 10 8 7 5 5 7 5 5 4
8 7 7 7 7 7 7 8 8 8 8 8 10 10 11 12 12 15 15 15 14 13 14 13 13 13 14 14 15 15 14 12 11 11 11 11 9 10 5 4 5 5 5 4 3
7 7 7 7 8 8 7 8 8 8 8 8 9 10 11 11 14 15 15 14 14 13 13 13 13 14 14 14 14 14 12 11 12 11 11 11 7 7 4 4 5 4 4 3 3
7 7 7 7 8 7 7 8 8 8 8 8 9 10 10 11 14 14 15 15 14 14 12 13 14 14 14 13 11 11 12 11 11 11 11 10 10 8 4 4 4 4 3 2 2
7 7 7 7 7 7 7 8 8 8 8 8 9 10 10 14 14 14 14 14 14 13 14 14 14 12 14 12 12 11 12 12 11 11 10 11 14 6 4 4 4 4 3 2 1
7 7 7 7 7 8 9 9 10 9 9 9 10 10 10 14 14 15 15 14 13 13 14 14 14 12 13 12 12 12 10 11 11 11 10 10 13 5 4 4 4 4 3 3 2
6 6 6 7 8 9 11 11 10 10 10 10 10 10 12 14 15 15 14 14 13 12 13 13 13 11 12 13 12 11 12 12 12 10 10 9 9 5 3 4 5 4 4 3 2
6 6 7 9 10 10 11 11 10 10 11 12 12 11 14 14 14 14 14 14 13 12 11 12 13 13 13 13 13 12 12 12 12 10 10 9 10 7 3 4 4 4 4 3 3
5 7 9 10 10 10 10 9 10 10 9 11 11 11 12 14 13 14 14 13 13 11 11 11 12 13 12 12 13 12 12 11 12 10 10 9 9 8 3 4 5 4 4 3 3
5 6 9 10 10 10 10 9 10 10 9 10 11 12 13 13 13 13 13 13 12 11 11 11 12 12 12 12 12 12 11 11 13 9 10 10 9 8 4 4 4 4 4 3 3
5 5 8 9 10 9 9 10 10 10 8 11 12 13 13 13 12 13 14 13 12 11 11 11 12 12 12 12 12 12 12 12 10 10 10 10 12 10 7 4 3 4 3 3 2
5 5 7 8 8 8 10 10 10 10 10 13 12 14 13 12 13 13 13 12 11 12 12 12 11 11 12 13 12 13 13 12 10 10 10 9 9 11 6 6 5 3 4 3 2
5 5 6 8 8 10 9 10 10 10 11 12 12 12 12 13 13 13 13 12 12 12 11 11 12 12 13 13 14 13 13 12 10 9 11 12 10 14 8 10 10 9 5 4 2
7 9 6 7 8 9 9 9 10 10 14 12 12 12 12 11 11 12 11 11 11 11 11 11 11 13 14 12 12 13 12 11 11 10 11 11 9 13 12 10 13 13 7 4 2
10 10 9 9 9 9 9 10 9 13 12 13 12 12 11 12 11 11 11 10 10 11 11 10 11 12 12 13 11 12 12 12 12 12 12 10 10 13 12 12 11 8 8 4 1
9 9 8 10 9 9 8 9 11 12 12 12 12 11 11 12 11 11 10 10 11 10 11 11 11 12 13 14 14 12 11 12 11 12 11 9 9 10 9 7 7 5 3 2 -1
6 7 8 9 9 9 9 10 10 12 12 12 11 11 10 10 11 10 10 10 12 10 11 10 11 10 11 13 13 13 12 11 11 12 12 10 9 12 9 9 6 2 1 -1 -2
6 6 9 9 9 7 8 8 10 12 12 11 11 10 10 10 10 8 9 10 10 9 9 8 9 9 11 11 11 12 11 10 10 11 12 11 12 10 12 10 7 3 -0 -3 -5
4 6 9 8 7 7 7 9 11 11 11 11 11 10 9 9 7 8 8 9 8 8 8 8 7 7 8 10 9 9 9 9 11 11 10 12 13 2 2 3 5 1 -2 -5 -6
1 2 8 8 6 6 7 9 10 10 10 10 10 10 9 9 8 8 8 8 7 7 7 6 7 6 6 8 9 9 8 8 8 7 9 11 10 2 1 -0 -1 -2 -4 -5 -7
1 5 4 5 5 7 7 8 8 9 9 9 9 7 8 7 8 6 7 7 6 7 7 6 5 6 7 7 6 7 6 7 7 7 8 8 9 8 6 -0 -3 -3 -5 -6 -8
-0 3 2 4 5 6 7 7 7 7 8 8 8 7 7 5 6 6 6 5 5 7 5 4 4 4 6 6 6 5 6 6 5 6 6 8 7 8 7 3 -4 -5 -6 -7 -8
-0 -1 -1 0 3 5 6 7 7 6 6 7 6 5 5 5 6 5 4 3 4 3 4 1 3 4 2 5 4 4 3 2 4 5 6 7 6 8 1 -2 -5 -6 -6 -7 -8
-0 -0 -1 2 2 4 3 4 4 4 5 4 4 3 4 4 3 3 2 1 2 2 2 3 2 1 2 1 0 -3 1 4 5 5 5 6 6 -2 -1 -2 -3 -6 -6 -7 -8
Height
810 808 805 802 799 797 795 793 790 789 788 787 785 783 782 781 780 779 778 775 775 776 777 777 782 787 791 793 795 804 807 807 799 797 797 795 794 806 809 811 818 821 822 824 824
808 806 803 800 799 796 794 792 790 788 787 785 783 782 780 779 779 777 769 770 773 776 776 778 782 783 790 790 793 801 807 804 799 793 797 798 796 804 809 814 821 824 826 826 826
808 805 802 800 798 796 793 790 789 787 786 784 782 782 780 778 779 771 767 768 772 775 776 778 779 780 785 787 789 795 799 801 799 797 799 804 806 811 810 810 813 815 824 826 828
807 804 801 798 795 793 791 789 787 785 784 784 782 781 779 779 776 768 768 769 770 773 776 776 781 784 789 787 784 790 791 793 798 799 798 803 810 815 820 823 823 820 825 826 830
807 803 800 797 795 792 790 789 787 785 784 782 782 782 780 779 775 769 768 768 770 772 775 776 780 781 783 784 783 786 792 797 800 802 802 805 817 813 826 825 826 827 826 829 832
806 803 799 796 793 791 789 787 786 785 784 782 781 781 781 782 769 769 768 768 768 771 773 775 777 777 780 782 783 784 796 801 801 801 803 804 820 820 826 825 828 831 831 832 833
805 801 798 794 790 786 784 782 781 782 782 782 781 780 779 775 768 768 768 768 768 769 772 774 775 778 779 783 788 791 797 801 802 802 804 806 811 814 822 826 829 833 833 833 833
803 799 796 791 789 785 781 780 779 778 779 780 781 780 776 767 766 766 767 766 767 770 773 775 778 779 780 784 787 794 797 800 797 800 805 808 794 816 823 824 827 830 832 833 834
803 799 794 790 788 784 781 778 776 776 777 778 781 781 775 765 764 764 765 766 768 770 772 775 778 783 783 786 793 794 803 798 797 798 803 806 791 815 823 823 825 828 830 832 834
802 797 793 789 787 786 783 780 778 776 777 778 779 783 769 764 761 762 763 765 769 771 774 775 778 786 783 782 786 797 793 793 793 800 802 807 800 816 821 822 824 825 826 827 831
801 796 793 790 786 784 783 782 783 780 776 767 768 768 762 763 762 761 762 765 768 773 779 775 775 775 778 780 780 783 788 787 786 795 800 800 794 805 820 822 820 820 821 823 825
800 796 792 789 788 786 783 783 786 788 778 765 764 765 762 762 761 759 760 766 768 775 775 780 773 770 775 777 778 782 785 788 785 793 799 799 796 801 816 812 809 811 815 815 821
799 794 791 789 786 787 786 786 785 784 781 763 758 757 758 760 760 757 757 760 766 773 774 776 769 769 772 775 779 781 786 789 783 796 796 797 795 794 803 805 805 804 807 810 809
797 793 790 787 787 785 785 785 785 784 788 759 754 750 751 754 757 751 753 757 763 766 768 768 764 767 770 770 774 777 774 777 788 793 795 796 782 783 786 797 799 797 800 799 802
796 792 789 787 787 786 786 784 783 785 788 753 753 748 748 754 753 751 751 755 760 761 763 759 761 765 766 762 769 763 767 773 785 790 789 795 799 769 789 787 784 787 787 790 795
793 790 788 788 787 785 784 784 784 785 775 755 751 753 756 753 753 753 753 754 754 757 761 758 754 755 753 756 757 763 766 773 783 790 775 770 786 736 770 758 760 760 772 776 786
790 786 785 785 785 785 784 785 789 779 749 754 755 755 755 757 755 754 757 760 759 761 761 757 753 748 747 757 757 759 766 769 774 775 757 757 781 713 734 744 734 733 750 762 776
786 783 781 781 782 783 784 786 789 755 757 753 753 753 757 752 753 753 756 758 759 756 758 762 753 746 740 742 750 750 754 753 751 745 740 762 753 720 723 723 728 738 740 758 772
784 781 780 779 779 782 785 785 770 763 759 760 754 757 757 751 755 755 757 756 750 754 756 750 750 737 736 728 736 745 753 742 749 738 746 754 747 731 734 737 740 745 750 758 769
786 782 780 779 779 781 782 776 770 762 759 761 764 759 762 761 759 759 759 752 746 750 749 753 745 747 740 734 732 733 742 750 745 732 721 739 745 715 732 728 736 750 752 763 771
787 786 782 782 781 784 784 778 767 760 759 763 763 763 765 765 763 768 759 752 752 755 755 760 759 755 743 739 736 732 738 743 741 732 719 723 716 716 706 711 724 739 754 766 776
790 793 781 782 790 787 784 772 766 760 760 763 761 761 763 763 771 766 761 754 757 758 762 760 764 764 753 738 741 743 743 741 729 719 721 707 703 746 747 738 728 746 761 773 781
799 795 782 782 791 789 781 775 771 766 765 763 764 763 763 764 769 763 759 760 761 761 763 768 760 764 761 747 741 742 746 750 750 749 731 712 718 744 748 752 757 762 766 774 783
801 797 789 785 786 784 782 778 773 772 771 769 767 771 768 770 767 770 765 764 766 763 763 768 774 767 761 760 763 756 755 753 754 752 741 734 727 722 732 751 760 771 778 780 782
802 801 802 796 788 788 786 783 778 778 772 772 771 773 775 782 777 774 773 773 771 766 769 774 774 773 762 760 760 760 756 752 763 755 751 735 740 727 729 739 757 765 776 785 789
810 813 809 805 796 790 786 782 780 781 788 781 784 788 783 783 779 782 783 785 778 776 775 782 777 770 776 759 761 759 764 767 759 749 742 735 731 719 737 747 758 762 770 779 791
813 812 812 802 799 794 796 792 790 792 786 788 791 793 788 783 787 785 785 783 781 779 780 777 778 782 771 776 778 799 769 746 743 736 735 732 727 751 746 749 751 758 767 772 781
Wind_Speed
15 15 14 14 13 12 13 13 11 11 10 11 10 10 9 8 7 4 9 10 7 8 3 9 12 17 13 4 8 3 2 4 4 3 3 1 2 3 3 6 4 4 3 4 13
14 15 15 14 14 13 12 12 12 10 10 10 10 8 8 7 5 10 14 13 10 6 6 7 6 14 6 9 5 5 2 4 4 1 4 5 4 3 1 3 3 3 5 8 11
16 16 15 15 14 13 13 11 11 11 10 10 7 9 9 4 1 6 4 15 10 8 5 5 8 5 5 3 5 7 5 5 6 10 2 2 2 2 5 3 3 6 11 9 11
17 15 15 15 14 13 13 12 11 10 9 10 7 9 6 0 2 1 3 4 14 12 7 8 4 6 6 6 6 5 5 11 4 4 6 3 3 3 3 2 7 10 13 9 9
17 17 16 16 15 13 13 13 12 10 9 7 5 9 2 2 6 1 1 2 10 12 13 4 5 5 6 7 6 5 4 4 3 3 6 9 1 2 3 2 5 9 8 8 8
18 18 18 17 15 13 12 12 12 11 9 6 4 4 2 4 4 2 3 3 11 17 13 9 6 6 5 3 8 4 6 5 2 2 3 5 2 2 4 6 6 6 7 6 8
20 20 19 17 15 11 10 10 9 8 6 7 5 2 3 10 5 9 4 3 10 21 5 11 2 3 3 3 4 6 6 2 3 4 2 4 2 6 5 9 9 8 7 7 7
21 20 19 17 16 12 9 9 6 6 7 6 4 2 5 5 8 11 6 4 7 16 6 9 2 1 0 6 4 5 3 4 4 7 2 3 5 3 11 12 11 10 8 8 7
22 22 21 18 15 10 9 6 3 4 4 5 3 3 7 6 4 3 6 4 8 8 14 6 7 4 1 5 3 1 4 4 2 7 5 5 5 4 10 10 10 11 10 9 8
22 21 19 16 11 12 10 2 2 2 5 5 3 1 6 2 2 1 5 11 3 6 4 4 3 4 2 4 9 4 3 4 6 7 3 4 9 4 10 10 10 9 10 10 11
22 20 17 12 9 12 10 2 4 3 5 6 4 3 1 3 2 2 4 8 4 2 5 4 7 12 8 6 4 7 4 5 2 7 5 9 8 8 10 10 10 11 11 10 11
24 19 13 10 10 11 5 3 2 3 8 9 11 8 11 7 2 3 7 5 4 5 3 3 14 10 9 7 6 6 7 7 3 5 6 3 12 4 11 9 14 14 13 14 11
23 20 14 12 9 4 4 2 5 4 4 6 5 5 5 7 4 5 9 5 4 6 6 5 4 9 7 5 7 4 8 5 5 3 2 4 7 5 6 6 10 12 11 12 17
23 21 15 14 1 3 1 5 7 5 4 4 4 4 5 6 4 7 12 5 4 9 6 6 5 8 5 9 8 13 9 8 7 5 6 8 8 7 6 8 10 14 15 18 17
23 22 16 7 7 2 2 8 5 0 5 4 2 3 4 6 1 2 4 2 5 5 5 7 6 6 10 13 9 10 8 10 6 7 2 6 4 4 3 8 11 17 20 18 16
25 22 15 5 6 5 5 7 1 0 7 2 2 3 4 2 2 1 2 2 3 3 4 6 3 6 11 7 13 5 3 3 2 4 12 12 10 17 10 11 8 14 20 20 17
27 17 9 6 2 1 6 1 1 3 2 2 3 3 3 5 4 6 5 4 5 4 8 3 11 5 5 4 5 7 6 6 5 6 11 11 10 31 5 10 16 17 18 21 18
23 11 6 10 1 3 0 1 4 1 3 3 3 3 5 5 6 5 3 5 6 4 2 5 6 14 9 19 10 14 17 7 8 9 10 9 10 11 10 13 13 4 4 14 17
18 6 4 1 8 4 2 2 4 3 2 5 5 2 3 2 3 2 5 4 5 11 7 4 7 2 6 16 15 9 11 23 10 9 3 5 7 7 3 6 3 6 9 15 15
16 6 3 3 6 4 2 5 4 3 2 2 2 2 3 4 4 2 2 3 2 1 4 2 6 2 5 2 8 19 3 5 7 8 9 6 6 7 5 11 9 9 12 12 13
6 3 0 3 5 2 3 5 4 4 1 2 2 3 3 3 3 3 4 3 1 2 2 3 3 3 2 5 6 5 14 8 3 4 5 3 5 3 14 15 14 11 11 13 13
5 3 1 4 1 1 2 3 3 2 0 3 2 6 5 4 3 4 5 4 1 2 1 2 2 5 9 7 6 5 5 5 6 8 5 14 12 5 8 8 5 12 13 12 13
3 3 1 1 2 2 4 5 3 3 4 1 4 2 1 3 3 3 3 2 3 2 2 2 2 3 6 0 2 1 2 1 3 3 4 7 4 3 6 9 9 9 14 15 16
2 3 4 3 1 2 3 4 3 3 3 5 4 0 2 3 4 3 2 3 2 1 3 3 3 7 8 7 1 10 4 2 2 4 7 8 8 12 6 2 6 6 9 13 16
3 2 1 3 2 4 2 5 4 6 5 4 4 3 5 2 4 3 2 5 2 1 0 2 5 5 10 10 9 11 13 14 6 9 9 13 15 18 7 8 9 11 13 13 14
2 3 4 3 4 4 4 3 4 5 5 6 5 10 5 3 3 4 1 2 5 3 1 1 4 2 6 9 10 15 8 8 12 13 14 17 19 15 1 8 10 14 16 15 12
4 1 2 4 4 2 1 3 4 4 1 3 2 4 8 7 3 6 6 6 5 4 4 3 3 2 10 3 5 6 8 15 8 9 7 12 10 3 3 4 11 14 15 16 17
Wind_Direction
354 352 349 343 338 335 333 326 332 330 332 325 330 332 333 325 313 212 229 224 229 238 350 159 174 160 166 131 147 114 271 256 261 347 339 308 65 26 67 89 55 29 34 90 135
351 349 343 339 336 330 328 325 321 322 321 322 321 331 327 322 290 246 248 232 237 250 174 164 166 156 184 177 169 142 253 213 278 303 9 1 42 62 123 116 72 79 96 121 131
350 347 342 338 333 328 321 317 314 313 313 320 325 329 325 301 263 242 319 218 207 215 201 187 166 155 162 149 194 183 169 217 269 275 339 203 88 33 140 224 194 186 157 140 131
349 341 338 334 331 326 318 315 308 308 311 315 325 326 335 106 166 352 43 220 210 199 198 148 132 173 160 189 190 143 142 192 174 217 180 265 88 63 26 354 320 135 144 135 145
346 343 340 336 330 326 320 313 307 305 302 302 318 332 359 260 256 256 357 160 184 184 189 177 153 164 181 183 158 146 148 103 124 137 101 118 97 187 158 91 76 121 127 137 134
349 343 338 333 327 324 320 313 304 298 291 287 289 334 264 257 175 105 340 206 193 189 185 184 202 201 168 206 171 154 112 128 124 128 119 121 157 342 178 141 141 154 148 144 152
347 345 340 334 325 315 313 311 303 290 281 284 258 312 267 246 202 287 317 245 215 194 158 203 162 183 138 130 117 120 99 115 169 169 147 141 209 225 140 162 169 188 172 157 157
348 344 340 335 325 316 307 305 293 274 269 270 207 275 251 258 296 269 271 260 196 203 172 213 132 119 296 126 79 93 86 150 173 154 138 215 246 142 159 167 186 195 195 188 184
347 344 343 340 336 335 328 314 290 259 235 202 230 208 265 295 263 271 244 180 156 183 198 130 137 197 83 127 90 132 181 191 231 209 137 192 242 138 174 183 192 201 199 203 198
346 346 346 347 357 349 342 356 43 88 148 185 266 312 271 234 208 299 145 163 145 132 109 185 148 181 171 174 206 183 213 190 195 200 199 174 261 168 187 197 205 203 204 205 209
345 345 347 351 355 352 347 327 2 287 219 213 177 247 329 297 280 188 165 149 107 132 168 204 190 215 193 202 175 172 196 237 173 171 153 212 253 187 183 207 212 208 206 212 215
344 343 341 338 337 348 7 72 3 325 300 239 247 244 269 291 296 243 157 152 150 197 158 98 222 201 190 199 197 208 192 221 280 155 180 171 248 188 178 215 212 202 208 208 198
342 340 331 325 314 327 16 46 346 338 275 281 207 203 186 172 234 240 155 150 175 175 200 195 243 176 179 179 192 217 212 187 208 92 314 360 287 247 208 219 203 214 215 209 203
339 337 329 328 308 330 264 335 330 328 301 247 213 245 150 139 256 210 187 150 195 207 164 236 223 181 187 211 178 229 176 179 153 149 240 164 266 259 217 222 213 215 210 215 207
335 333 326 313 302 260 304 323 321 164 324 140 180 157 158 162 256 177 164 93 195 186 162 224 188 178 217 221 176 247 171 196 185 214 181 204 271 238 121 246 235 223 219 215 205
331 328 323 283 255 257 310 323 1 342 256 216 127 166 121 238 271 79 145 71 177 200 218 233 195 183 226 209 206 152 113 84 103 154 242 226 197 253 204 205 232 226 219 211 195
330 321 290 227 242 302 321 36 333 215 36 201 218 180 205 205 229 197 182 185 197 203 229 191 231 228 175 223 197 184 181 227 213 211 247 186 189 248 197 207 211 224 204 198 183
332 318 279 242 212 264 51 87 239 221 274 351 15 181 199 181 244 210 201 236 251 234 186 212 271 210 210 205 191 201 199 218 226 223 242 155 224 243 218 214 217 284 173 166 171
334 316 271 287 203 212 116 194 251 314 18 346 318 269 281 282 253 198 221 232 226 193 226 244 242 318 222 222 198 207 216 222 264 255 237 201 270 296 206 262 183 169 152 166 164
326 322 278 166 154 145 177 241 263 278 353 354 288 16 312 334 338 320 213 269 264 274 233 337 275 289 296 285 252 225 155 202 209 233 244 202 241 230 218 219 199 179 172 157 149
331 358 41 173 164 64 217 228 271 279 20 234 267 294 260 274 220 231 259 284 321 16 10 148 227 270 330 192 228 211 225 219 255 217 247 271 238 265 204 211 203 187 155 149 143
2 344 131 167 10 273 256 231 311 299 359 287 250 235 221 219 253 248 234 238 40 94 235 247 233 262 243 246 194 173 202 259 256 229 236 245 245 2 338 337 140 141 139 136 139
354 267 5 180 244 257 287 298 291 304 278 208 262 290 319 236 260 249 283 62 31 343 308 27 265 293 317 347 124 247 90 320 258 250 270 270 250 340 43 32 26 131 142 145 143
23 335 324 29 353 277 300 268 323 9 301 310 283 178 271 276 257 278 292 22 0 39 206 154 252 239 263 284 227 287 253 239 210 272 314 264 283 309 308 173 125 127 147 148 147
43 281 201 293 340 329 330 311 309 325 345 216 226 349 340 272 317 284 325 334 322 230 57 184 252 238 252 253 263 268 279 294 264 264 253 273 291 283 267 223 179 150 151 159 161
40 14 347 292 308 329 349 332 340 7 358 333 4 355 350 290 306 292 313 214 245 327 213 291 263 275 270 258 244 261 254 253 263 271 257 259 267 270 18 107 155 166 165 164 166
24 350 121 300 337 335 4 15 26 13 216 90 59 327 296 293 281 258 232 239 231 205 221 231 212 220 264 296 325 320 217 236 233 228 231 250 257 336 294 239 186 168 174 166 159